FW0696 Weather Reports


time (UTC)temp
F
wind
direction
speed
knots
gust
knots
rain 1hr
in
rain 24hr
in
rain mn
in
humidity
%
barometer
mb
20260510130048 36 3 0.0 4.3 0.00 0.00 0.00 83 1015.0
20260510124545 37 47 2.6 5.2 0.00 0.00 0.00 82 1014.9
20260510123044 37 58 2.6 9.6 0.00 0.00 0.00 82 1014.8
20260510121542 37 344 2.6 6.1 0.00 0.00 0.00 82 1014.5
20260510120036 37 340 0.9 7.8 0.00 0.00 0.00 81 1014.1
20260510114559 36 39 2.6 7.0 0.00 0.00 0.00 82 1013.9
20260510113045 36 330 0.0 3.5 0.00 0.00 0.00 84 1013.5
20260510111534 36 349 0.0 6.1 0.00 0.00 0.00 84 1013.4
20260510110035 36 331 1.7 6.1 0.00 0.00 0.00 83 1013.2
20260510104525 36 329 1.7 7.0 0.00 0.00 0.00 82 1013.0
20260510103026 37 34 1.7 10.4 0.00 0.00 0.00 82 1012.9
20260510101523 37 79 0.9 7.0 0.00 0.00 0.00 82 1012.7
20260510100030 38 345 0.0 7.0 0.00 0.00 0.00 80 1012.6
20260510094519 38 17 1.7 9.6 0.00 0.00 0.00 79 1011.7
20260510093017 38 49 0.9 9.6 0.00 0.00 0.00 80 1011.3
20260510091515 38 11 1.7 7.8 0.00 0.00 0.00 82 1011.0
20260510090012 38 26 3.5 9.6 0.00 0.00 0.00 81 1010.8
20260510084509 39 45 4.3 10.4 0.00 0.00 0.00 79 1010.2
20260510083013 38 335 3.5 7.0 0.00 0.00 0.00 79 1009.7
20260510081506 37 220 0.0 4.3 0.00 0.00 0.00 81 1010.0
20260510080004 37 46 0.0 6.1 0.00 0.00 0.00 80 1009.7
20260510074502 37 27 2.6 7.8 0.00 0.00 0.00 79 1009.2
20260510073100 37 335 4.3 11.3 0.00 0.00 0.00 78 1008.8
20260510071603 37 326 3.5 9.6 0.00 0.00 0.00 78 1008.8
20260510070107 38 330 3.5 9.6 0.00 0.00 0.00 79 1008.5
20260510064558 39 319 6.1 13.9 0.00 0.00 0.00 76 1008.1
20260510063047 39 27 0.0 8.7 0.00 0.00 0.00 76 1007.2
20260510061545 38 83 1.7 6.1 0.00 0.00 0.00 76 1006.9
20260510060042 39 359 0.0 8.7 0.00 0.00 0.00 75 1006.5
20260510054545 39 48 3.5 11.3 0.00 0.00 0.00 74 1006.3
20260510053034 40 351 0.9 7.8 0.00 0.00 0.00 75 1006.0
20260510051535 40 15 4.3 9.6 0.00 0.00 0.00 75 1005.6
20260510050035 40 18 0.0 1.7 0.00 0.00 0.00 78 1005.4
20260510044524 41 348 0.0 3.5 0.00 0.00 0.00 77 1005.1
20260510043021 42 314 0.0 2.6 0.00 0.00 0.00 74 1004.7
20260510041520 42 326 0.9 6.1 0.00 0.00 0.00 75 1004.3
20260510040018 41 31 0.9 7.8 0.00 0.00 0.00 76 1004.1
20260510034515 43 6 2.6 8.7 0.00 0.00 0.00 75 1003.7
20260510033014 42 24 0.9 8.7 0.00 0.00 0.00 77 1003.3
20260510031511 42 65 3.5 8.7 0.00 0.00 0.00 73 1002.7
20260510030008 42 72 3.5 12.2 0.00 0.00 0.00 75 1001.9
20260510024506 42 26 3.5 17.4 0.00 0.00 0.00 76 1002.0
20260510023004 42 105 1.7 10.4 0.00 0.00 0.00 76 1001.4
20260510021501 42 317 4.3 10.4 0.00 0.00 0.00 76 1001.0
20260510020059 43 340 5.2 15.6 0.00 0.00 0.00 74 1000.5
20260510014607 43 345 4.3 11.3 0.00 0.00 0.00 78 1000.4
20260510013053 44 310 7.0 13.9 0.00 0.00 0.00 74 1000.2
20260510011557 45 329 4.3 10.4 0.00 0.00 0.00 74 999.8
20260510010059 45 32 1.7 7.8 0.00 0.00 0.00 77 1000.0
20260510004554 46 85 3.5 7.8 0.00 0.00 0.00 73 999.6
20260510003055 46 355 2.6 7.0 0.00 0.00 0.00 74 999.2
20260510001546 47 38 0.9 7.8 0.00 0.00 0.00 74 999.1
20260510000050 48 21 0.9 8.7 0.00 0.00 0.00 75 998.9
20260509234553 47 86 2.6 8.7 0.00 0.00 0.00 73 998.6
20260509233041 47 340 0.9 4.3 0.00 0.00 0.00 76 998.5
20260509231541 45 50 1.7 4.3 0.00 0.00 0.00 77 998.8
20260509230040 45 316 1.7 7.8 0.00 0.00 0.00 78 998.8
20260509224538 44 29 0.0 6.1 0.00 0.00 0.00 81 998.4
20260509223045 43 319 2.6 7.0 0.00 0.00 0.00 81 998.2
20260509221537 43 331 0.9 5.2 0.00 0.00 0.00 83 998.1
20260509220043 42 339 0.0 3.5 0.00 0.00 0.00 85 997.9
20260509214539 42 103 0.9 7.0 0.00 0.00 0.00 87 997.8
20260509213037 42 53 1.7 6.1 0.00 0.00 0.00 87 997.7
20260509211529 42 64 0.9 8.7 0.00 0.00 0.00 87 997.4
20260509210025 41 322 1.7 7.0 0.00 0.00 0.00 88 997.0
20260509204528 42 323 0.9 6.1 0.00 0.00 0.00 90 996.6
20260509203020 42 73 1.7 7.0 0.00 0.00 0.00 90 996.3
20260509201518 42 48 0.0 3.5 0.00 0.00 0.00 90 995.9
20260509200016 42 1 0.0 1.7 0.00 0.00 0.00 90 995.7
20260509194512 43 17 0.0 1.7 0.00 0.00 0.00 90 995.5
20260509193011 42 86 0.0 0.9 0.00 0.00 0.00 88 995.1
20260509191508 43 113 0.0 1.7 0.00 0.00 0.00 87 994.4
20260509190007 43 8 0.0 0.9 0.00 0.00 0.00 84 994.3
20260509184504 44 348 0.0 1.7 0.00 0.00 0.00 82 994.1
20260509183003 44 8 0.0 0.9 0.00 0.00 0.00 82 993.7
20260509181502 43 134 0.0 2.6 0.00 0.00 0.00 84 993.7
20260509180100 43 21 0.0 0.0 0.00 0.03 0.00 82 993.1
20260509174604 44 18 0.0 0.0 0.00 0.03 0.00 78 992.5
20260509173107 45 137 0.0 1.7 0.00 0.03 0.00 78 992.2
20260509171555 45 89 0.0 0.0 0.00 0.03 0.00 80 992.0
20260509170049 46 87 0.0 0.0 0.00 0.04 0.00 80 992.0
20260509164547 47 88 0.0 0.0 0.00 0.04 0.00 77 991.8
20260509163046 47 88 0.0 0.0 0.00 0.04 0.00 75 991.9
20260509161542 48 87 0.0 0.0 0.00 0.04 0.00 73 991.6
20260509160040 48 7 0.0 0.9 0.00 0.05 0.00 72 991.5
20260509154537 50 6 0.0 0.9 0.00 0.05 0.00 67 991.5
20260509153035 50 333 0.0 0.0 0.00 0.05 0.00 66 991.6
20260509151533 51 327 0.0 4.3 0.00 0.05 0.00 65 991.5
20260509150031 51 348 0.0 2.6 0.00 0.09 0.00 64 991.6
20260509144528 52 79 0.0 0.9 0.00 0.09 0.00 62 991.7
20260509143025 53 98 0.0 4.3 0.00 0.09 0.00 60 991.7
20260509141523 53 101 0.0 5.2 0.00 0.09 0.00 59 991.8
20260509140031 54 120 2.6 7.0 0.00 0.26 0.00 58 991.7
20260509134521 54 110 1.7 9.6 0.00 0.26 0.00 58 992.1
20260509133020 54 70 0.0 7.8 0.00 0.26 0.00 57 992.0
20260509131530 54 203 0.0 10.4 0.00 0.26 0.00 57 991.9